Location: Waco, TX
(31.5480°N, 97.1670°W)
Time: 15:09:42
(UTC-06:00)

ISS - Pass Details

Date: 13 November 2017
Orbit: 402 x 407 km, 51.6° (Epoch: 22 November)

Event Time Altitude Azimuth Distance (km) Brightness Sun altitude
Rises 22:20:57 0° 185° (S) 2,303 - -61.4°
Reaches altitude 10° 22:23:52 10° 156° (SSE) 1,448 - -62.0°
Maximum altitude 22:25:28 13° 126° (SE) 1,277 - -62.3°
Drops below altitude 10° 22:27:04 10° 96° (E) 1,451 - -62.6°
Sets 22:29:59 0° 68° (ENE) 2,313 - -63.2°
